Location: Gunnison Valley Observatory
(38.5087°N, 106.9386°W)
Time: 13:05:32
(UTC-07:00)

Amateur Radio Satellites - All Passes

Search period start: 10 February 2016 12:35
Search period end: 11 February 2016 12:35
Location: Gunnison Valley Observatory, 38.5087°N, 106.9386°W

Satellite Date Start Highest point End Downlink Frequencies (MHz)
Time Altitude Azimuth
YUBILEINY 10 Feb 12:42:35 12:48:15 18° 64° (ENE) 12:53:51 435.215
DANDE 10 Feb 12:44:30 12:51:07 45° 73° (ENE) 12:56:10 436.750
VELOX 1 10 Feb 12:52:15 12:55:05 17° 294° (WNW) 12:57:54 145.980
BEESAT 10 Feb 13:00:13 13:01:48 11° 91° (E) 13:03:24 436.000
Oscar 19 10 Feb 13:00:31 13:05:41 70° 258° (WSW) 13:10:53 437.125/150
JAS-2 10 Feb 13:09:14 13:16:59 86° 256° (WSW) 13:24:06 435.910
AISAT 10 Feb 13:10:41 13:11:40 11° 298° (WNW) 13:12:41 437.250
AO-7 10 Feb 13:17:11 13:22:57 21° 53° (NE) 13:28:43 29.400- 29.500
SPROUT 10 Feb 13:26:15 13:29:27 21° 292° (WNW) 13:32:40 437.525
TISAT 1 10 Feb 13:32:06 13:36:07 47° 287° (WNW) 13:40:07 437.305
Gurwin Techsat 1B 10 Feb 13:36:30 13:41:49 87° 257° (WSW) 13:47:10 435.225
RS-15 10 Feb 13:37:04 13:47:09 36° 321° (NW) 13:57:47 29.354- 29.394
CUSAT 1 10 Feb 13:49:51 13:54:02 22° 277° (W) 13:57:27 437.405
SWISSCUBE 10 Feb 13:50:08 13:54:44 45° 99° (E) 13:59:20 437.505
SO-50 10 Feb 13:51:55 13:56:45 90° 41° (NE) 14:01:23 436.795
ITAMSAT 1 10 Feb 14:10:44 14:15:55 78° 257° (WSW) 14:21:09 435.822/435.867
ITUPSAT 1 10 Feb 14:27:11 14:32:01 84° 285° (WNW) 14:36:50 437.325
DANDE 10 Feb 14:28:20 14:33:27 24° 278° (W) 14:37:39 436.750
KKS-1 10 Feb 14:28:49 14:30:45 13° 92° (E) 14:32:40 437.445
BEESAT 10 Feb 14:35:15 14:40:01 67° 286° (WNW) 14:44:46 436.000
YUBILEINY 10 Feb 14:37:22 14:46:16 89° 261° (W) 14:55:04 435.215
Cosmos 2491 10 Feb 14:40:51 14:49:14 55° 90° (E) 14:57:37 435.465 / 435.565
HORYU 2 10 Feb 14:51:45 14:55:02 21° 67° (ENE) 14:58:20 437.375
M-CUBED/EXP-1 PRIME 10 Feb 14:52:48 14:56:14 38° 69° (ENE) 14:59:27 437.505
ISS 10 Feb 14:57:52 15:00:55 40° 136° (SE) 15:04:00 145.825
JAS-2 10 Feb 14:58:38 15:02:35 15° 270° (W) 15:06:25 435.910
AUBIESAT-1 10 Feb 15:01:56 15:05:21 40° 69° (ENE) 15:08:37 437.475
AO-7 10 Feb 15:06:17 15:14:41 88° 254° (WSW) 15:23:06 29.400- 29.500
SWISSCUBE 10 Feb 15:28:53 15:32:11 19° 295° (WNW) 15:35:29 437.505
Cosmos 2504 10 Feb 15:44:09 15:52:35 56° 78° (ENE) 16:00:23 435.465 / 435.565
STARS 10 Feb 15:44:15 15:48:29 48° 100° (E) 15:52:42 437.465
RS-15 10 Feb 15:57:19 16:04:44 18° 355° (N) 16:12:21 29.354- 29.394
MOZHAYETS 4 10 Feb 16:02:02 16:06:37 56° 100° (E) 16:11:10
BEESAT 3 10 Feb 16:02:41 16:05:42 21° 112° (ESE) 16:08:43 437.485
KKS-1 10 Feb 16:03:18 16:07:37 53° 287° (WNW) 16:11:55 437.445
Cubesat XI-IV 10 Feb 16:11:05 16:13:30 13° 60° (ENE) 16:15:56 437.490
HORYU 2 10 Feb 16:27:24 16:31:23 33° 262° (W) 16:35:23 437.375
BRITE-PL 10 Feb 16:27:53 16:28:33 10° 60° (ENE) 16:29:12 437.365/2234.400
BEESAT 2 10 Feb 16:27:58 16:31:18 25° 113° (ESE) 16:34:39 435.950
M-CUBED/EXP-1 PRIME 10 Feb 16:29:46 16:30:58 11° 261° (W) 16:32:09 437.505
O/OREOS (USA 219) 10 Feb 16:34:03 16:36:50 16° 56° (NE) 16:39:36 437.305
ISS 10 Feb 16:34:48 16:37:28 23° 332° (NNW) 16:40:09 145.825
YUBILEINY 10 Feb 16:36:51 16:41:42 16° 283° (WNW) 16:46:33 435.215
Cosmos 2491 10 Feb 16:38:58 16:46:24 31° 289° (WNW) 16:53:54 435.465 / 435.565
AUBIESAT-1 10 Feb 16:39:14 16:40:04 11° 261° (W) 16:40:53 437.475
CUBESAT XI-V 10 Feb 16:46:12 16:49:05 16° 92° (E) 16:51:56 437.345
AO-7 10 Feb 17:03:43 17:08:25 16° 269° (W) 17:13:09 29.400- 29.500
AO-85 10 Feb 17:15:39 17:16:15 10° 34° (NE) 17:16:52 145.980
STARS 10 Feb 17:22:00 17:24:26 15° 295° (WNW) 17:26:53 437.465
GOMX 1 10 Feb 17:26:17 17:29:55 19° 66° (ENE) 17:33:29 467.674
LilacSat-2 10 Feb 17:33:24 17:37:10 62° 76° (ENE) 17:40:56 437.200
CUTE-I 10 Feb 17:33:32 17:38:50 78° 75° (ENE) 17:44:12 437.470
Cosmos 2504 10 Feb 17:38:24 17:45:21 29° 277° (W) 17:51:56 435.465 / 435.565
BEESAT 3 10 Feb 17:39:42 17:43:16 31° 308° (NW) 17:46:51 437.485
MOZHAYETS 4 10 Feb 17:40:48 17:43:17 14° 296° (WNW) 17:45:47
Cubesat XI-IV 10 Feb 17:47:32 17:52:51 79° 257° (WSW) 17:58:14 437.490
BRITE-PL 10 Feb 18:00:25 18:06:06 75° 76° (ENE) 18:11:41 437.365/2234.400
BEESAT 2 10 Feb 18:05:41 18:09:06 26° 309° (NW) 18:12:33 435.950
GONETS M04 10 Feb 18:08:39 18:12:57 14° 61° (ENE) 18:17:15
O/OREOS (USA 219) 10 Feb 18:12:05 18:16:33 53° 253° (WSW) 18:21:02 437.305
RS-15 10 Feb 18:13:22 18:23:13 28° 31° (NNE) 18:33:14 29.354- 29.394
CUBESAT XI-V 10 Feb 18:22:11 18:26:42 47° 287° (WNW) 18:31:10 437.345
HO-68 10 Feb 18:24:14 18:30:08 29° 62° (ENE) 18:36:03 435.675
AIST 2 10 Feb 18:29:03 18:33:07 54° 117° (ESE) 18:37:11 435.215
CANX-2 10 Feb 18:38:44 18:41:39 19° 67° (ENE) 18:44:35 2200.000
DOVE 4 10 Feb 18:39:27 18:44:21 48° 73° (ENE) 18:49:01 437.250
AO-85 10 Feb 18:53:01 18:58:03 54° 55° (NE) 19:02:39 145.980
GOMX 1 10 Feb 19:02:18 19:07:36 54° 260° (W) 19:12:43 467.674
COMPASS 1 10 Feb 19:17:32 19:20:53 24° 69° (ENE) 19:24:16 437.405
CUTE-I 10 Feb 19:17:37 19:19:26 12° 270° (W) 19:21:16 437.470
STRAND 1 10 Feb 19:23:43 19:28:55 83° 103° (ESE) 19:34:05 437.568
Oscar 11 10 Feb 19:26:47 19:27:43 11° 63° (ENE) 19:28:40 145.826/435.025
CINEMA 3 10 Feb 19:27:35 19:32:04 51° 74° (ENE) 19:36:22 145.822/145.860
CUTE 1.7 + AOD 2 10 Feb 19:27:46 19:31:54 59° 75° (ENE) 19:36:04 437.475
PCSat 10 Feb 19:28:36 19:33:51 46° 57° (ENE) 19:39:01 145.827
UWE-3 10 Feb 19:29:53 19:31:44 13° 65° (ENE) 19:33:34 435.000/436.395/437.385
CUBEBUG 2 10 Feb 19:29:55 19:32:51 18° 68° (ENE) 19:35:45 437.445
SEEDS 10 Feb 19:32:36 19:36:38 49° 74° (ENE) 19:40:42 437.485
PRISM 10 Feb 19:33:17 19:36:59 30° 97° (E) 19:40:39 437.425
BRITE-PL 10 Feb 19:42:08 19:45:00 14° 270° (W) 19:47:51 437.365/2234.400
AAUSAT CUBESAT 2 10 Feb 19:44:42 19:48:33 40° 73° (ENE) 19:52:27 437.432
ISS 10 Feb 19:52:05 19:52:35 10° 13° (NNE) 19:53:06 145.825
GONETS M04 10 Feb 20:02:30 20:11:21 76° 82° (E) 20:20:11
AIST 2 10 Feb 20:09:18 20:11:55 16° 314° (NW) 20:14:33 435.215
HO-68 10 Feb 20:10:27 20:17:26 54° 259° (WSW) 20:24:28 435.675
CANX-2 10 Feb 20:13:26 20:17:15 34° 263° (W) 20:21:07 2200.000
DOVE 4 10 Feb 20:18:48 20:22:12 18° 267° (W) 20:25:30 437.250
ZACube-1 10 Feb 20:19:39 20:23:23 31° 71° (ENE) 20:27:04 437.345
RS-15 10 Feb 20:25:48 20:38:04 78° 57° (ENE) 20:50:25 29.354- 29.394
FUNcube-1 10 Feb 20:28:02 20:31:54 37° 72° (ENE) 20:35:44 145.935
HUMSAT D 10 Feb 20:32:18 20:33:56 12° 65° (ENE) 20:35:33 437.325/437.525
AO-85 10 Feb 20:34:53 20:37:59 17° 254° (WSW) 20:40:55 145.980
Cosmos 2499 10 Feb 20:42:32 20:50:49 61° 79° (ENE) 20:58:24 435.465 / 435.565
DELFI C3 10 Feb 20:50:54 20:54:44 49° 74° (ENE) 20:58:36 145.870
COMPASS 1 10 Feb 20:52:57 20:56:22 25° 265° (W) 20:59:49 437.405
Oscar 11 10 Feb 20:59:00 21:03:15 67° 259° (WSW) 21:07:34 145.826/435.025
UWE-3 10 Feb 21:03:37 21:07:47 52° 260° (W) 21:11:53 435.000/436.395/437.385
CUBEBUG 2 10 Feb 21:05:15 21:09:14 35° 262° (W) 21:13:09 437.445
STRAND 1 10 Feb 21:05:28 21:07:21 12° 300° (WNW) 21:09:14 437.568
CINEMA 3 10 Feb 21:07:03 21:09:25 14° 267° (W) 21:11:46 145.822/145.860
CUTE 1.7 + AOD 2 10 Feb 21:07:46 21:08:07 10° 270° (W) 21:08:28 437.475
PRISM 10 Feb 21:09:01 21:12:07 20° 293° (WNW) 21:15:11 437.425
SEEDS 10 Feb 21:10:58 21:12:37 12° 269° (W) 21:14:16 437.485
PCSat 10 Feb 21:12:43 21:16:54 23° 254° (WSW) 21:21:04 145.827
ESTCUBE 1 10 Feb 21:20:44 21:21:32 10° 62° (ENE) 21:22:22 437.505/2401.250
AAUSAT CUBESAT 2 10 Feb 21:21:55 21:24:14 15° 268° (W) 21:26:34 437.432
ISS 10 Feb 21:26:50 21:29:49 33° 32° (NNE) 21:32:48 145.825
ANTELSAT 10 Feb 21:28:18 21:30:26 13° 92° (E) 21:32:34 437.575/2403.000
TIGRISAT 10 Feb 21:34:30 21:37:00 15° 93° (E) 21:39:30 435.000
AIST 1 10 Feb 21:45:12 21:49:34 88° 88° (E) 21:53:51
ZACube-1 10 Feb 21:56:43 21:59:43 19° 266° (W) 22:02:43 437.345
GONETS M04 10 Feb 22:01:09 22:07:08 21° 280° (W) 22:13:09
HUMSAT D 10 Feb 22:05:09 22:09:07 51° 260° (W) 22:13:06 437.325/437.525
FUNcube-1 10 Feb 22:05:42 22:08:17 16° 267° (W) 22:10:51 145.935
VELOX 1 10 Feb 22:10:44 22:14:42 32° 70° (ENE) 22:18:40 145.980
UNISAT 6 10 Feb 22:18:06 22:22:21 49° 100° (E) 22:26:39 437.425
POLYITAN 1 10 Feb 22:20:57 22:22:08 11° 91° (E) 22:23:19 437.675
QB50P2 10 Feb 22:21:16 22:22:46 12° 91° (E) 22:24:15 145.880/145.840
50 SAT 10 Feb 22:25:42 22:29:19 55° 75° (ENE) 22:32:57 437.505
AISAT 10 Feb 22:27:11 22:31:30 51° 73° (ENE) 22:35:51 437.250
DELFI C3 10 Feb 22:28:51 22:29:55 11° 269° (W) 22:31:00 145.870
UKube-1 10 Feb 22:34:09 22:38:22 54° 73° (ENE) 22:42:37 .
Cosmos 2499 10 Feb 22:36:51 22:43:09 25° 279° (W) 22:49:07 435.465 / 435.565
RS-15 10 Feb 22:39:39 22:49:23 29° 258° (WSW) 22:59:11 29.354- 29.394
SPROUT 10 Feb 22:42:46 22:45:57 20° 68° (ENE) 22:49:07 437.525
CUBEBUG 1 10 Feb 22:43:40 22:48:02 62° 74° (ENE) 22:52:26 437.445
DX 1 10 Feb 22:47:56 22:52:20 88° 261° (W) 22:56:44 434.975-435.025
POPSAT HIP 1 10 Feb 22:49:05 22:52:29 24° 96° (E) 22:55:53 437.405
NANOSAT C BR1 10 Feb 22:53:00 22:56:31 26° 96° (E) 23:00:01 145.865
ESTCUBE 1 10 Feb 22:53:10 22:57:41 76° 258° (WSW) 23:02:15 437.505/2401.250
DUCHIFAT 1 10 Feb 22:53:58 22:57:27 25° 96° (E) 23:00:53 145.980
QB50P1 10 Feb 23:01:18 23:05:07 33° 97° (E) 23:08:55 145.935-145.965
ANTELSAT 10 Feb 23:03:10 23:07:23 50° 286° (WNW) 23:11:40 437.575/2403.000
ISS 10 Feb 23:03:29 23:06:09 24° 228° (SW) 23:08:50 145.825
TIGRISAT 10 Feb 23:09:45 23:13:52 44° 287° (WNW) 23:18:04 435.000
VELOX 1 10 Feb 23:47:45 23:51:12 22° 265° (W) 23:54:38 145.980
BUGSAT 1 10 Feb 23:50:26 23:54:26 59° 100° (E) 23:58:23 437.445
PHONESAT 2.4 10 Feb 23:52:14 23:55:03 27° 152° (SSE) 23:57:52 2401.200-2431.200
POLYITAN 1 10 Feb 23:54:10 23:58:16 55° 286° (WNW) 00:02:23 437.675
QB50P2 10 Feb 23:54:47 23:58:52 52° 286° (WNW) 00:02:57 145.880/145.840
UNISAT 6 10 Feb 23:56:19 23:58:40 14° 295° (WNW) 00:01:02 437.425
ITUPSAT 1 10 Feb 23:59:27 23:59:59 10° 60° (ENE) 00:00:31 437.325
BEESAT 11 Feb 00:05:37 00:07:35 12° 62° (ENE) 00:09:34 436.000
AISAT 11 Feb 00:06:04 00:08:16 13° 268° (W) 00:10:28 437.250
DANDE 11 Feb 00:12:06 00:14:02 11° 75° (ENE) 00:15:59 436.750
UKube-1 11 Feb 00:13:01 00:14:43 12° 268° (W) 00:16:26 .
SPROUT 11 Feb 00:17:51 00:21:42 32° 263° (W) 00:25:35 437.525
TISAT 1 11 Feb 00:21:53 00:26:07 81° 257° (WSW) 00:30:21 437.305
BEESAT 3 11 Feb 00:23:00 00:23:45 10° 42° (NE) 00:24:28 437.485
CUBEBUG 1 11 Feb 00:23:32 00:24:41 11° 269° (W) 00:25:52 437.445
POPSAT HIP 1 11 Feb 00:24:44 00:28:13 26° 291° (WNW) 00:31:41 437.405
NANOSAT C BR1 11 Feb 00:28:48 00:32:10 24° 291° (WNW) 00:35:30 145.865
DUCHIFAT 1 11 Feb 00:29:40 00:33:03 24° 291° (WNW) 00:36:25 145.980
QB50P1 11 Feb 00:37:43 00:40:40 19° 293° (WNW) 00:43:36 145.935-145.965
BEESAT 2 11 Feb 00:48:28 00:50:14 12° 44° (NE) 00:51:58 435.950
Cosmos 2491 11 Feb 00:53:33 01:00:25 25° 68° (ENE) 01:07:14 435.465 / 435.565
SWISSCUBE 11 Feb 00:55:08 00:59:38 44° 71° (ENE) 01:04:10 437.505
CUSAT 1 11 Feb 01:04:34 01:12:11 52° 92° (E) 01:19:54 437.405
Oscar 19 11 Feb 01:13:39 01:18:36 46° 100° (E) 01:23:29 437.125/150
KKS-1 11 Feb 01:26:54 01:28:00 11° 62° (ENE) 01:29:06 437.445
BUGSAT 1 11 Feb 01:28:37 01:29:17 10° 297° (WNW) 01:29:58 437.445
PHONESAT 2.4 11 Feb 01:28:50 01:32:08 82° 353° (N) 01:35:24 2401.200-2431.200
ITUPSAT 1 11 Feb 01:32:18 01:37:05 85° 259° (WSW) 01:41:54 437.325
BEESAT 11 Feb 01:40:01 01:44:46 70° 258° (WSW) 01:49:32 436.000
YUBILEINY 11 Feb 01:42:47 01:48:51 21° 80° (E) 01:54:56 435.215
DANDE 11 Feb 01:47:40 01:55:14 63° 93° (E) 02:03:36 436.750
Gurwin Techsat 1B 11 Feb 01:54:21 01:59:24 42° 99° (E) 02:04:25 435.225
BEESAT 3 11 Feb 01:58:06 02:02:04 86° 240° (WSW) 02:06:00 437.485
JAS-2 11 Feb 02:06:38 02:12:15 84° 285° (WNW) 02:17:27 435.910
BEESAT 2 11 Feb 02:24:36 02:28:34 69° 242° (WSW) 02:32:30 435.950
ITAMSAT 1 11 Feb 02:25:10 02:30:08 42° 99° (E) 02:35:04 435.822/435.867
SWISSCUBE 11 Feb 02:34:26 02:37:37 18° 267° (W) 02:40:51 437.505
STARS 11 Feb 02:39:32 02:43:32 35° 71° (ENE) 02:47:33 437.465
CUSAT 1 11 Feb 02:47:31 02:54:39 35° 289° (WNW) 03:01:50 437.405
Cosmos 2491 11 Feb 02:49:17 02:57:56 68° 267° (W) 03:06:37 435.465 / 435.565
AIST 2 11 Feb 02:52:12 02:55:35 24° 50° (NE) 02:58:57 435.215
Oscar 19 11 Feb 02:53:52 02:57:33 20° 295° (WNW) 03:01:13 437.125/150
KKS-1 11 Feb 02:59:30 03:03:57 71° 258° (WSW) 03:08:25 437.445
MOZHAYETS 4 11 Feb 03:02:26 03:06:44 43° 73° (ENE) 03:11:06
PHONESAT 2.4 11 Feb 03:06:17 03:09:32 59° 3° (N) 03:12:46 2401.200-2431.200
AO-7 11 Feb 03:10:08 03:17:32 34° 98° (E) 03:24:51 29.400- 29.500
DANDE 11 Feb 03:32:03 03:38:45 30° 292° (WNW) 03:45:55 436.750
Gurwin Techsat 1B 11 Feb 03:34:55 03:39:03 23° 294° (WNW) 03:43:11 435.225
YUBILEINY 11 Feb 03:35:51 03:44:37 75° 279° (W) 03:53:29 435.215
CUBESAT XI-V 11 Feb 03:48:51 03:51:19 14° 64° (ENE) 03:53:49 437.345
SO-50 11 Feb 04:04:24 04:08:59 42° 115° (ESE) 04:13:39 436.795
ITAMSAT 1 11 Feb 04:05:16 04:09:18 23° 295° (WNW) 04:13:20 435.822/435.867
M-CUBED/EXP-1 PRIME 11 Feb 04:07:36 04:10:48 35° 104° (ESE) 04:14:10 437.505
AUBIESAT-1 11 Feb 04:16:09 04:19:25 37° 104° (ESE) 04:22:52 437.475
STARS 11 Feb 04:16:53 04:20:00 19° 266° (W) 04:23:07 437.465
Cosmos 2504 11 Feb 04:19:14 04:27:19 49° 89° (E) 04:35:44 435.465 / 435.565
HORYU 2 11 Feb 04:19:14 04:23:34 49° 100° (E) 04:27:52 437.375
AIST 2 11 Feb 04:30:27 04:34:05 30° 247° (WSW) 04:37:41 435.215
MOZHAYETS 4 11 Feb 04:41:15 04:44:07 16° 268° (W) 04:47:00
PHONESAT 2.4 11 Feb 04:43:36 04:46:50 62° 201° (SSW) 04:50:04 2401.200-2431.200
Cosmos 2491 11 Feb 04:51:43 04:53:00 10° 286° (WNW) 04:54:17 435.465 / 435.565
AO-7 11 Feb 05:02:31 05:10:27 51° 295° (WNW) 05:18:22 29.400- 29.500
STRAND 1 11 Feb 05:02:47 05:04:45 12° 60° (ENE) 05:06:43 437.568
CUBESAT XI-V 11 Feb 05:23:35 05:28:11 58° 260° (W) 05:32:51 437.345
YUBILEINY 11 Feb 05:38:54 05:43:03 14° 300° (WNW) 05:47:15 435.215
M-CUBED/EXP-1 PRIME 11 Feb 05:43:36 05:45:12 13° 297° (WNW) 05:46:51 437.505
SO-50 11 Feb 05:45:33 05:49:38 25° 312° (NW) 05:53:45 436.795
AUBIESAT-1 11 Feb 05:52:09 05:53:45 13° 297° (WNW) 05:55:22 437.475
CUTE-I 11 Feb 05:52:21 05:57:15 34° 97° (E) 06:02:06 437.470
HORYU 2 11 Feb 05:57:10 05:59:43 15° 295° (WNW) 06:02:15 437.375
Cubesat XI-IV 11 Feb 06:06:20 06:11:31 47° 99° (E) 06:16:41 437.490
BRITE-PL 11 Feb 06:08:26 06:12:09 24° 93° (E) 06:15:40 437.365/2234.400
Cosmos 2504 11 Feb 06:13:08 06:20:52 36° 288° (WNW) 06:28:54 435.465 / 435.565
PHONESAT 2.4 11 Feb 06:21:58 06:23:41 14° 215° (SW) 06:25:24 2401.200-2431.200
PRISM 11 Feb 06:22:04 06:25:02 19° 67° (ENE) 06:28:02 437.425
STRAND 1 11 Feb 06:38:05 06:43:12 81° 257° (WSW) 06:48:21 437.568
DOVE 4 11 Feb 06:42:23 06:43:45 11° 90° (E) 06:45:07 437.250
LilacSat-2 11 Feb 06:42:27 06:46:13 67° 284° (WNW) 06:49:58 437.200
O/OREOS (USA 219) 11 Feb 06:44:49 06:48:07 20° 101° (E) 06:51:26 437.305
AO-7 11 Feb 07:00:12 07:01:16 10° 316° (NW) 07:02:19 29.400- 29.500
GOMX 1 11 Feb 07:06:18 07:10:32 48° 99° (E) 07:14:35 467.674
GONETS M04 11 Feb 07:09:40 07:14:28 16° 77° (ENE) 07:19:16
CUTE 1.7 + AOD 2 11 Feb 07:16:22 07:17:51 12° 91° (E) 07:19:19 437.475
CINEMA 3 11 Feb 07:25:47 07:27:14 12° 91° (E) 07:28:41 145.822/145.860
CUTE-I 11 Feb 07:32:35 07:37:09 29° 293° (WNW) 07:41:41 437.470
HO-68 11 Feb 07:39:56 07:46:17 32° 97° (E) 07:52:34 435.675
BRITE-PL 11 Feb 07:46:39 07:50:38 28° 292° (WNW) 07:54:24 437.365/2234.400
Cubesat XI-IV 11 Feb 07:47:13 07:51:14 22° 295° (WNW) 07:55:15 437.490
PRISM 11 Feb 07:56:24 08:00:08 32° 262° (W) 08:03:55 437.425
CANX-2 11 Feb 07:59:29 08:03:35 43° 99° (E) 08:07:40 2200.000
JUGNU 11 Feb 08:05:01 08:05:56 10° 173° (S) 08:06:52 437.505
DOVE 4 11 Feb 08:17:44 08:21:49 49° 286° (WNW) 08:25:48 437.250
O/OREOS (USA 219) 11 Feb 08:23:11 08:27:15 34° 297° (WNW) 08:31:23 437.305
ANTELSAT 11 Feb 08:28:03 08:28:33 10° 63° (ENE) 08:29:03 437.575/2403.000
TIGRISAT 11 Feb 08:33:27 08:34:50 11° 64° (ENE) 08:36:14 435.000
COMPASS 1 11 Feb 08:36:25 08:40:35 55° 100° (E) 08:44:43 437.405
GOMX 1 11 Feb 08:46:00 08:48:09 14° 296° (WNW) 08:50:14 467.674
Oscar 11 11 Feb 08:48:07 08:51:41 24° 95° (E) 08:55:13 145.826/435.025
CUTE 1.7 + AOD 2 11 Feb 08:49:48 08:54:00 55° 285° (WNW) 08:58:11 437.475
SEEDS 11 Feb 08:53:22 08:57:36 67° 285° (WNW) 09:01:50 437.485
UWE-3 11 Feb 08:54:34 08:58:21 31° 97° (E) 09:02:12 435.000/436.395/437.385
CUBEBUG 2 11 Feb 08:56:54 09:00:59 47° 99° (E) 09:05:08 437.445
CINEMA 3 11 Feb 09:00:39 09:04:40 49° 286° (WNW) 09:08:43 145.822/145.860
GONETS M04 11 Feb 09:01:16 09:09:58 90° 284° (WNW) 09:18:44
AAUSAT CUBESAT 2 11 Feb 09:03:32 09:07:46 86° 283° (WNW) 09:11:58 437.432
AO-85 11 Feb 09:05:38 09:10:07 28° 110° (ESE) 09:14:45 145.980
Cosmos 2499 11 Feb 09:15:28 09:23:48 53° 90° (E) 09:32:20 435.465 / 435.565
UNISAT 6 11 Feb 09:15:48 09:19:44 36° 72° (ENE) 09:23:39 437.425
HO-68 11 Feb 09:27:18 09:34:05 46° 293° (WNW) 09:40:50 435.675
CANX-2 11 Feb 09:36:30 09:39:05 16° 294° (WNW) 09:41:40 2200.000
POPSAT HIP 1 11 Feb 09:41:09 09:43:44 16° 66° (ENE) 09:46:19 437.405
NANOSAT C BR1 11 Feb 09:44:38 09:47:23 17° 67° (ENE) 09:50:08 145.865
ZACube-1 11 Feb 09:44:43 09:48:58 85° 99° (E) 09:53:18 437.345
DUCHIFAT 1 11 Feb 09:45:25 09:48:05 17° 67° (ENE) 09:50:45 145.980
HUMSAT D 11 Feb 09:50:14 09:53:47 26° 96° (E) 09:57:21 437.325/437.525
JUGNU 11 Feb 09:52:07 09:54:02 12° 183° (S) 09:55:56 437.505
QB50P1 11 Feb 09:52:52 09:56:07 22° 68° (ENE) 09:59:21 145.935-145.965
FUNcube-1 11 Feb 09:52:57 09:57:12 81° 281° (WNW) 10:01:30 145.935
ANTELSAT 11 Feb 10:00:24 10:04:42 68° 258° (WSW) 10:08:58 437.575/2403.000
DELFI C3 11 Feb 10:04:57 10:09:00 78° 284° (WNW) 10:13:02 145.870
TIGRISAT 11 Feb 10:06:46 10:11:01 60° 259° (W) 10:15:16 435.000
PCSat 11 Feb 10:08:33 10:13:49 56° 113° (ESE) 10:19:08 145.827
AIST 1 11 Feb 10:12:38 10:16:56 55° 94° (E) 10:21:15
COMPASS 1 11 Feb 10:13:56 10:15:40 12° 295° (WNW) 10:17:23 437.405
AISAT 11 Feb 10:21:50 10:22:39 10° 91° (E) 10:23:29 437.250
Oscar 11 11 Feb 10:24:04 10:27:45 27° 290° (WNW) 10:31:24 145.826/435.025
UWE-3 11 Feb 10:31:32 10:34:38 20° 292° (WNW) 10:37:46 435.000/436.395/437.385
CUBEBUG 2 11 Feb 10:35:05 10:37:14 14° 294° (WNW) 10:39:24 437.445
CUBEBUG 1 11 Feb 10:35:49 10:37:39 12° 91° (E) 10:39:29 437.445
DX 1 11 Feb 10:38:43 10:41:37 17° 94° (E) 10:44:32 434.975-435.025
BUGSAT 1 11 Feb 10:38:44 10:42:31 34° 72° (ENE) 10:46:19 437.445
POLYITAN 1 11 Feb 10:45:00 10:49:14 89° 56° (ENE) 10:53:28 437.675
AO-85 11 Feb 10:45:24 10:50:28 41° 308° (NW) 10:55:41 145.980
QB50P2 11 Feb 10:45:33 10:49:48 87° 262° (W) 10:54:03 145.880/145.840
RS-15 11 Feb 10:47:09 10:57:48 57° 111° (ESE) 11:09:01 29.354- 29.394
ESTCUBE 1 11 Feb 10:47:43 10:51:28 25° 95° (E) 10:55:10 437.505/2401.250
UNISAT 6 11 Feb 10:53:40 10:56:34 17° 266° (W) 10:59:27 437.425
GONETS M04 11 Feb 11:02:41 11:08:01 17° 297° (WNW) 11:13:26
Cosmos 2499 11 Feb 11:09:30 11:17:11 34° 288° (WNW) 11:25:04 435.465 / 435.565
POPSAT HIP 1 11 Feb 11:15:11 11:19:11 41° 261° (W) 11:23:12 437.405
NANOSAT C BR1 11 Feb 11:18:53 11:22:49 37° 262° (W) 11:26:46 145.865
DUCHIFAT 1 11 Feb 11:19:32 11:23:29 39° 262° (W) 11:27:26 145.980
HUMSAT D 11 Feb 11:25:59 11:29:18 23° 291° (WNW) 11:32:39 437.325/437.525
QB50P1 11 Feb 11:28:03 11:31:44 29° 263° (W) 11:35:26 145.935-145.965
SRMSAT 11 Feb 11:31:07 11:33:11 12° 180° (S) 11:35:16 437.500
50 SAT 11 Feb 11:32:18 11:36:07 85° 283° (WNW) 11:39:55 437.505
VELOX 1 11 Feb 11:38:07 11:42:33 79° 103° (ESE) 11:46:57 145.980
CUSAT 1 11 Feb 11:45:44 11:50:10 24° 66° (ENE) 11:53:45 437.405
AIST 1 11 Feb 11:53:15 11:54:53 12° 290° (WNW) 11:56:33
PCSat 11 Feb 11:53:27 11:57:35 22° 311° (NW) 12:01:43 145.827
AISAT 11 Feb 11:55:10 11:59:32 63° 286° (WNW) 12:03:52 437.250
UKube-1 11 Feb 11:58:35 12:02:53 66° 286° (WNW) 12:07:09 .
SPROUT 11 Feb 12:05:00 12:09:06 45° 99° (E) 12:13:10 437.525
TISAT 1 11 Feb 12:08:30 12:11:15 17° 94° (E) 12:13:57 437.305
CUBEBUG 1 11 Feb 12:10:00 12:14:15 52° 286° (WNW) 12:18:26 437.445
DX 1 11 Feb 12:13:55 12:17:56 37° 289° (WNW) 12:21:55 434.975-435.025
BUGSAT 1 11 Feb 12:15:07 12:17:59 18° 266° (W) 12:20:52 437.445
JAS-2 11 Feb 12:15:16 12:22:15 41° 69° (ENE) 12:28:40 435.910
ESTCUBE 1 11 Feb 12:24:19 12:28:14 29° 291° (WNW) 12:32:06 437.505/2401.250
